Weather History for Marrakech, Morocco

Change the Weather History Date:

Thursday, April 25, 2013

  Actual Average Record
Temperature  
Mean Temperature 70 °F -  
Max Temperature 84 °F 80 °F 98 °F (2008)
Min Temperature 56 °F 56 °F 51 °F (2006)
Cooling Degree Days 5    
Growing Degree Days 20 (Base 50)    
Moisture  
Dew Point 41 °F    
Average Humidity 36    
Maximum Humidity 63    
Minimum Humidity 6    
Precipitation  
Precipitation 0.00 in 0.03 in - ()
Sea Level Pressure  
Sea Level Pressure 29.95 in    
Wind  
Wind Speed 5 mph ()    
Max Wind Speed 16 mph    
Max Gust Speed -    
Visibility 6.1 miles    
Events      
Averages and records for this station are not official NWS values.
T = Trace of Precipitation, MM = Missing Value Source: Averaged Metar Reports

Daily Weather History Graph

Daily Weather History Graph

Search for Another Location

Airport:

Trip Planner

Search our weather history database for the weather conditions in past years. The results will help you decide how hot, cold, wet, or windy it might be!

Date:

Astronomy

Apr. 25, 2013 Rise Set
Actual Time 5:52 AM WET 7:07 PM WET
Civil Twilight 5:27 AM WET 7:33 PM WET
Nautical Twilight 4:56 AM WET 8:03 PM WET
Astronomical Twilight 4:25 AM WET 8:35 PM WET
Moon 7:03 PM WET (4/25) 5:25 AM WET (4/25)
Length of Visible Light 14h 06m
Length of Day
13h 15m
Full, 100% of the Moon is Illuminated
Apr 25
Full
Apr 25
Full
May 2
Last Quarter
May 10
New
May 18
First Quarter

Hourly Weather History & Observations

Time (WET) Temp. Dew Point Humidity Pressure Visibility Wind Dir Wind Speed Gust Speed Precip Events Conditions
12:00 AM 65 °F 44 °F 35% 29.91 in 6 mi Calm Calm - -   Scattered Clouds
12:00 AM 66.2 °F 44.6 °F 46% 29.95 in 6.2 mi Variable 2.3 mph - N/A   Partly Cloudy
12:30 AM 66.2 °F 42.8 °F 43% 29.95 in - Calm Calm - N/A   Clear
1:00 AM 66.2 °F 42.8 °F 43% 29.92 in - Calm Calm - N/A   Clear
1:30 AM 66.2 °F 42.8 °F 43% 29.92 in - East 2.3 mph - N/A   Clear
2:00 AM 64.4 °F 42.8 °F 45% 29.92 in - Calm Calm - N/A   Clear
3:00 AM 61 °F 43 °F 40% 29.88 in 6 mi Calm Calm - -  
3:00 AM 60.8 °F 42.8 °F 52% 29.92 in - Calm Calm - N/A   Clear
3:30 AM 60.8 °F 42.8 °F 52% 29.89 in - Calm Calm - N/A   Clear
4:00 AM 60.8 °F 44.6 °F 55% 29.89 in 5.6 mi Calm Calm - N/A   Unknown
4:30 AM 59.0 °F 44.6 °F 59% 29.89 in 5.6 mi Calm Calm - N/A   Unknown
5:00 AM 60.8 °F 42.8 °F 52% 29.92 in - Calm Calm - N/A   Clear
5:30 AM 57.2 °F 42.8 °F 59% 29.92 in - WNW 3.5 mph - N/A   Clear
6:00 AM 58 °F 43 °F 46% 29.91 in 6 mi West 8.1 mph - -  
6:00 AM 57.2 °F 42.8 °F 59% 29.92 in - West 8.1 mph - N/A   Clear
6:30 AM 57.2 °F 44.6 °F 63% 29.92 in - West 5.8 mph - N/A   Clear
7:00 AM 60.8 °F 44.6 °F 55% 29.95 in - West 6.9 mph - N/A   Clear
7:30 AM 62.6 °F 44.6 °F 52% 29.95 in - West 6.9 mph - N/A   Clear
8:00 AM 64.4 °F 46.4 °F 52% 29.98 in - West 6.9 mph - N/A   Clear
8:30 AM 66.2 °F 46.4 °F 49% 29.98 in 6.2 mi West 6.9 mph - N/A   Partly Cloudy
9:00 AM 69 °F 49 °F 37% 29.94 in 6 mi West 6.9 mph - -   Scattered Clouds
9:00 AM 68.0 °F 48.2 °F 49% 29.98 in 6.2 mi West 6.9 mph - N/A   Partly Cloudy
9:30 AM 69.8 °F 48.2 °F 46% 29.98 in 6.2 mi WSW 8.1 mph - N/A   Partly Cloudy
10:00 AM 73.4 °F 48.2 °F 41% 29.98 in 6.2 mi West 8.1 mph - N/A   Partly Cloudy
10:30 AM 75.2 °F 46.4 °F 36% 29.98 in - WNW 6.9 mph - N/A   Clear
11:00 AM 77.0 °F 46.4 °F 34% 29.98 in - WNW 8.1 mph - N/A   Clear
11:30 AM 78.8 °F 46.4 °F 32% 29.98 in - WNW 6.9 mph - N/A   Clear
12:00 PM 79 °F 47 °F 21% 29.89 in 6 mi NW 5.8 mph - -   Clear
12:00 PM 78.8 °F 46.4 °F 32% 29.95 in - NW 6.9 mph - N/A   Clear
12:30 PM 78.8 °F 44.6 °F 30% 29.95 in - West 8.1 mph - N/A   Clear
1:00 PM 80.6 °F 42.8 °F 26% 29.95 in 6.2 mi WNW 8.1 mph - N/A   Partly Cloudy
1:30 PM 80.6 °F 44.6 °F 28% 29.92 in 6.2 mi WNW 9.2 mph - N/A   Partly Cloudy
2:00 PM 82.4 °F 41.0 °F 23% 29.92 in 6.2 mi WNW 11.5 mph - N/A   Partly Cloudy
2:30 PM 82.4 °F 39.2 °F 21% 29.92 in 6.2 mi WNW 12.7 mph - N/A   Partly Cloudy
3:00 PM 83 °F 34 °F 9% 29.82 in 6 mi WNW 11.5 mph - -   Scattered Clouds
3:00 PM 84.2 °F 33.8 °F 16% 29.92 in 6.2 mi West 12.7 mph - N/A   Partly Cloudy
3:30 PM 84.2 °F 28.4 °F 13% 29.92 in 6.2 mi NW 11.5 mph - N/A   Partly Cloudy
4:00 PM 84.2 °F 26.6 °F 12% 29.92 in 6.2 mi West 12.7 mph - N/A   Partly Cloudy
4:30 PM 84.2 °F 26.6 °F 12% 29.92 in 6.2 mi WNW 12.7 mph - N/A   Partly Cloudy
5:00 PM 82.4 °F 24.8 °F 12% 29.92 in 6.2 mi WNW 16.1 mph - N/A   Scattered Clouds
5:30 PM 82.4 °F 24.8 °F 12% 29.92 in 6.2 mi WNW 12.7 mph - N/A   Scattered Clouds
6:00 PM 82 °F 26 °F 6% 29.85 in 6 mi NW 12.7 mph - -   Clear
6:00 PM 82.4 °F 28.4 °F 14% 29.92 in 6.2 mi NW 13.8 mph - N/A   Scattered Clouds
6:30 PM 78.8 °F 30.2 °F 17% 29.95 in 6.2 mi NW 10.4 mph - N/A   Scattered Clouds
7:00 PM 77.0 °F 35.6 °F 22% 29.95 in 6.2 mi NNW 10.4 mph - N/A   Scattered Clouds
7:30 PM 75.2 °F 37.4 °F 25% 29.95 in 6.2 mi NNW 9.2 mph - N/A   Scattered Clouds
8:00 PM 73.4 °F 39.2 °F 29% 29.98 in 6.2 mi North 11.5 mph - N/A   Scattered Clouds
8:30 PM 69.8 °F 41.0 °F 35% 30.01 in 6.2 mi NNW 10.4 mph - N/A   Scattered Clouds
9:00 PM 68 °F 43 °F 29% 29.99 in 6 mi North 10.4 mph - -   Clear
9:00 PM 68.0 °F 42.8 °F 40% 30.04 in 6.2 mi North 10.4 mph - N/A   Scattered Clouds
9:30 PM 68.0 °F 42.8 °F 40% 30.04 in 6.2 mi NNE 9.2 mph - N/A   Scattered Clouds
10:00 PM 66.2 °F 42.8 °F 43% 30.06 in 6.2 mi NNE 4.6 mph - N/A   Scattered Clouds
10:30 PM 64.4 °F 44.6 °F 49% 30.06 in 6.2 mi NNE 5.8 mph - N/A   Scattered Clouds
11:00 PM 64.4 °F 44.6 °F 49% 30.06 in 6.2 mi NNE 4.6 mph - N/A   Scattered Clouds
11:30 PM 64.4 °F 44.6 °F 49% 30.06 in 6.2 mi NNE 6.9 mph - N/A   Scattered Clouds